Location: Limoges
(45.8354°N, 1.2645°E)
Time: 11:28:22
(UTC+01:00)

A-11 Canister half - Visible Passes

Search period start: 22 February 2024 00:00
Search period end: 03 March 2024 00:00
Orbit: 1512 x 1687 km, 47.2° (Epoch: 21 February)

Date Brightness Start Highest point End Pass type
(mag) Time Alt. Az. Time Alt. Az. Time Alt. Az.
22 Feb 10.4 02:47:15 28° E 02:47:15 28° E 02:52:02 10° ENE visible
22 Feb 9.0 04:45:26 64° SW 04:47:22 81° SSE 04:57:14 10° ENE visible
22 Feb 9.2 06:43:37 14° W 06:52:39 83° N 07:02:23 10° E visible
23 Feb 10.6 02:25:26 23° E 02:25:26 23° E 02:28:59 10° ENE visible
23 Feb 8.9 04:23:38 76° SSW 04:24:21 79° SSE 04:34:15 10° ENE visible
23 Feb 9.1 06:21:48 19° W 06:29:38 83° N 06:39:24 10° E visible
24 Feb 10.8 02:03:35 18° E 02:03:35 18° E 02:05:56 10° ENE visible
24 Feb 9.0 04:01:46 76° SE 04:01:46 76° SE 04:11:15 10° ENE visible
24 Feb 9.1 05:59:57 25° W 06:06:36 83° N 06:16:24 10° E visible
25 Feb 11.0 01:41:43 14° E 01:41:43 14° E 01:42:52 10° ENE visible
25 Feb 9.2 03:39:54 65° E 03:39:54 65° E 03:48:17 10° ENE visible
25 Feb 9.1 05:38:05 32° W 05:43:34 83° N 05:53:25 10° E visible
26 Feb 9.5 03:18:01 53° E 03:18:01 53° E 03:25:17 10° ENE visible
26 Feb 9.1 05:16:12 41° W 05:20:33 83° N 05:30:25 10° E visible
27 Feb 9.8 02:56:07 43° E 02:56:07 43° E 03:02:17 10° ENE visible
27 Feb 9.0 04:54:17 50° W 04:57:31 83° N 05:07:25 10° E visible
27 Feb 9.2 06:52:45 10° WNW 07:02:49 82° SSW 07:12:29 10° ESE visible
28 Feb 10.1 02:34:12 35° E 02:34:12 35° E 02:39:17 10° ENE visible
28 Feb 9.0 04:32:23 62° W 04:34:29 84° N 04:44:25 10° E visible
28 Feb 9.1 06:30:34 13° WNW 06:39:49 84° SSW 06:49:32 10° ESE visible
29 Feb 10.4 02:12:18 28° ENE 02:12:18 28° ENE 02:16:18 10° ENE visible
29 Feb 8.9 04:10:28 76° WNW 04:11:26 84° N 04:21:25 10° E visible
29 Feb 9.1 06:08:38 18° WNW 06:16:49 85° SSW 06:26:34 10° ESE visible
01 Mar 10.6 01:50:23 22° ENE 01:50:23 22° ENE 01:53:17 10° ENE visible
01 Mar 9.0 03:48:33 84° NNE 03:48:33 84° NNE 03:58:24 10° E visible
01 Mar 9.1 05:46:44 23° WNW 05:53:48 87° SSW 06:03:37 10° ESE visible
02 Mar 10.9 01:28:28 17° ENE 01:28:28 17° ENE 01:30:16 10° ENE visible
02 Mar 9.1 03:26:39 72° ENE 03:26:39 72° ENE 03:35:25 10° E visible
02 Mar 9.0 05:24:49 29° WNW 05:30:48 89° SSW 05:40:38 10° ESE visible
